This is the latest recevied weather packets stored in our database for station/object KT2UU-13. If no packets are shown the sender has not sent any weather packets the latest 10 day(s).
| Time | Temp. | Humidity | Pressure | Rain* | Wind** | Luminosity | Snow |
|---|---|---|---|---|---|---|---|
| 1778114567 | 17.22° C | 99% | 1014.5 hPa | 6.1 mm | - | - | - |
| 1778114263 | 17.22° C | 99% | 1014.8 hPa | 18.03 mm | - | - | - |
| 1778113958 | 17.22° C | 99% | 1014.8 hPa | 21.08 mm | - | - | - |
| 1778113655 | 17.22° C | 99% | 1014.7 hPa | 10.67 mm | - | - | - |
| 1778113351 | 17.78° C | 99% | 1014.6 hPa | 6.1 mm | - | - | - |
| 1778113048 | 17.78° C | 99% | 1014.7 hPa | 6.1 mm | - | - | - |
| 1778112745 | 17.78° C | 99% | 1014.7 hPa | 21.59 mm | - | - | - |
| 1778112441 | 17.78° C | 99% | 1014.7 hPa | 66.55 mm | - | - | - |
| 1778112137 | 17.78° C | 99% | 1014.6 hPa | 52.32 mm | - | - | - |
| 1778111834 | 17.78° C | 99% | 1014.9 hPa | 7.87 mm | - | - | - |
| 1778111529 | 17.78° C | 99% | 1014.4 hPa | 8.89 mm | - | - | - |
| 1778111227 | 17.78° C | 99% | 1014.3 hPa | 13.72 mm | - | - | - |
| 1778110924 | 17.78° C | 99% | 1013.8 hPa | 14.99 mm | - | - | - |
| 1778110622 | 18.33° C | 99% | 1014.1 hPa | 4.32 mm | - | - | - |
| 1778110318 | 17.78° C | 99% | 1014.2 hPa | 1.78 mm | - | - | - |
| 1778110014 | 17.78° C | 99% | 1014.1 hPa | 4.83 mm | - | - | - |
| 1778109709 | 18.33° C | 99% | 1014.3 hPa | 3.05 mm | - | - | - |
| 1778109407 | 18.33° C | 99% | 1014.5 hPa | 0 mm | - | - | - |
| 1778109105 | 18.33° C | 99% | 1013.9 hPa | 3.05 mm | - | - | - |
| 1778108802 | 18.33° C | 98% | 1013.1 hPa | 3.05 mm | - | - | - |
| 1778108498 | 18.33° C | 98% | 1013.3 hPa | 10.67 mm | - | - | - |
| 1778108195 | 18.33° C | 97% | 1013.7 hPa | 4.32 mm | - | - | - |
| 1778107892 | 18.33° C | 97% | 1013.4 hPa | 1.27 mm | - | - | - |
| 1778107588 | 18.33° C | 97% | 1013.1 hPa | 0 mm | - | - | - |
| 1778107285 | 18.33° C | 97% | 1013.2 hPa | 0 mm | - | - | - |
* Rain latest hour (hover to see other rain measurements)
** Current wind speed in m/s (hover to see current wind gust speed)